sat.trackr.live / text

‹ back to catalog

STARLINK-34650

NORAD 66258 · 2025-245AA

PAYLOAD ACTIVE UNKNOWN

§ Identity

Operator
Country
US
Launch date
2025-10-29
Launch site
AFETR
Launch vehicle
Mass (kg)
RCS (m²)

Purposes: comms

External: N2YO · Heavens-Above · Gunter

§ Orbital elements

Epoch: 2026-05-25T03:10:29.174304Z

Period
94.10 min
Inclination
53.1594°
Eccentricity
0.0000979
Mean motion
15.30206826 rev/d
Perigee alt
474.5 km
Apogee alt
475.9 km
Semi-major
6,853.3 km
B*
6.4286e-4
RAAN
288.5736°
Arg perigee
89.6352°
Mean anomaly
270.4761°
Rev number
3,296

§ Raw data

STARLINK-346501 66258U 25245AA  26145.13228211  .00018732  00000+0  64286-3 0  99922 66258  53.1594 288.5736 0000979  89.6352 270.4761 15.30206826 32963

JSON: /api/v1/satellites/66258 · /tle

For live sub-satellite position, see the globe view (requires WebGL).

§ Visibility from observer

Set your observer location to see the next 7 days of passes ≥ 10°. The values pass through the URL so the page stays shareable.

No JS? Fill the form by hand. The geolocation button needs JavaScript.